N4TRF-13 Weather Reports


Display with metric or nautical units.
time (UTC)temp
F
wind
direction
speed
MPH
gust
MPH
rain 1hr
in
rain 24hr
in
rain mn
in
humidity
%
barometer
mb
20260906035706 78 136 0.0 0.0 0.00 0.00 0.00 100 1013.0
20260906035206 78 136 0.0 0.0 0.00 0.00 0.00 100 1014.0
20260906034706 78 134 0.0 0.0 0.00 0.00 0.00 100 1013.0
20260906034206 78 125 0.0 0.0 0.00 0.00 0.00 100 1013.0
20260906033706 78 142 0.0 0.0 0.00 0.00 0.00 100 1013.0
20260906033206 78 139 0.0 0.0 0.00 0.00 0.00 100 1013.0
20260906032706 78 140 0.0 0.0 0.00 0.00 0.00 100 1013.0
20260906032208 79 139 0.0 0.0 0.00 0.00 0.00 100 1013.0
20260906031707 79 138 0.0 0.0 0.00 0.00 0.00 100 1013.0
20260906031206 79 145 0.0 0.0 0.00 0.00 0.00 100 1013.0
20260906030706 79 145 0.0 0.0 0.00 0.00 0.00 100 1013.0
20260906030206 79 160 0.0 0.0 0.00 0.00 0.00 100 1013.0
20260906025707 79 158 0.0 0.0 0.00 0.00 0.00 100 1013.0
20260906025208 79 159 0.0 0.0 0.00 0.00 0.00 100 1013.0
20260906024706 80 158 0.0 0.0 0.00 0.00 0.00 100 1013.0
20260906024206 80 150 0.0 0.0 0.00 0.00 0.00 99 1013.0
20260906023707 80 136 0.0 0.0 0.00 0.00 0.00 98 1013.0
20260906023207 80 143 0.0 0.0 0.00 0.00 0.00 98 1013.0
20260906022707 80 162 0.0 0.0 0.00 0.00 0.00 97 1013.0
20260906022207 80 162 0.0 0.0 0.00 0.00 0.00 97 1013.0
20260906021706 80 151 0.0 0.0 0.00 0.00 0.00 98 1013.0
20260906021206 81 157 0.0 0.0 0.00 0.00 0.00 97 1013.0
20260906020706 81 166 0.0 0.0 0.00 0.00 0.00 96 1013.0
20260906020207 81 151 0.0 0.0 0.00 0.00 0.00 96 1013.0
20260906015707 82 158 0.0 0.0 0.00 0.00 0.00 95 1013.0
20260906015207 82 130 0.0 0.0 0.00 0.00 0.00 94 1013.0
20260906014706 82 152 0.0 0.0 0.00 0.00 0.00 92 1013.0
20260906014206 83 154 0.0 0.0 0.00 0.00 0.00 91 1013.0
20260906013709 83 155 0.0 0.0 0.00 0.00 0.00 90 1013.0
20260906013206 83 155 0.0 0.0 0.00 0.00 0.00 89 1013.0
20260906012708 84 144 0.0 0.0 0.00 0.00 0.00 88 1013.0
20260906012206 84 143 0.0 0.0 0.00 0.00 0.00 87 1013.0
20260906011706 85 143 0.0 0.0 0.00 0.00 0.00 86 1013.0
20260906011206 85 143 0.0 0.0 0.00 0.00 0.00 86 1012.0
20260906010707 86 142 0.0 0.0 0.00 0.00 0.00 85 1012.0
20260906010207 86 142 0.0 0.0 0.00 0.00 0.00 84 1012.0
20260906005706 86 142 0.0 0.0 0.00 0.00 0.00 83 1012.0
20260906005206 87 143 0.0 0.0 0.00 0.00 0.00 82 1012.0
20260906004707 88 142 0.0 0.0 0.00 0.00 0.00 80 1012.0
20260906004206 88 142 0.0 0.0 0.00 0.00 0.00 79 1012.0
20260906003706 89 142 0.0 0.0 0.00 0.00 0.00 78 1012.0
20260906003206 89 141 0.0 0.0 0.00 0.00 0.00 78 1012.0
20260906002706 90 139 0.0 0.0 0.00 0.00 0.00 77 1012.0
20260906002207 90 139 0.0 0.0 0.00 0.00 0.00 78 1012.0
20260906001706 91 140 0.0 0.0 0.00 0.00 0.00 72 1012.0
20260906001206 92 140 0.0 0.0 0.00 0.00 0.00 72 1012.0
20260906000706 92 131 0.0 0.0 0.00 0.00 0.00 71 1012.0
20260906000206 93 130 0.0 1.0 0.00 0.00 0.00 70 1012.0
20260905235707 95 123 0.0 0.0 0.00 0.00 0.00 67 1012.0
20260905235206 96 131 0.0 0.0 0.00 0.00 0.00 65 1012.0
20260905234706 97 129 0.0 0.0 0.00 0.00 0.00 65 1012.0
20260905234206 99 147 0.0 0.0 0.00 0.00 0.00 62 1013.0
20260905233706 100 139 0.0 2.0 0.00 0.00 0.00 61 1013.0
20260905233206 102 87 0.0 0.0 0.00 0.00 0.00 60 1012.0
20260905232707 104 139 0.0 0.0 0.00 0.00 0.00 55 1012.0
20260905232206 105 139 0.0 1.0 0.00 0.00 0.00 51 1012.0
20260905231706 106 148 0.0 2.0 0.00 0.00 0.00 50 1012.0
20260905231206 106 100 0.0 2.0 0.00 0.00 0.00 51 1012.0
20260905230707 105 31 0.0 3.0 0.00 0.00 0.00 50 1012.0
20260905230210 105 84 2.0 4.0 0.00 0.00 0.00 49 1012.0
20260905225706 106 113 1.0 3.0 0.00 0.00 0.00 50 1012.0
20260905225206 106 147 1.0 5.0 0.00 0.00 0.00 48 1012.0
20260905224709 107 42 1.0 3.0 0.00 0.00 0.00 49 1012.0
20260905224207 107 137 1.0 4.0 0.00 0.00 0.00 47 1012.0
20260905223706 108 32 2.0 5.0 0.00 0.00 0.00 46 1012.0
20260905223206 109 22 0.0 4.0 0.00 0.00 0.00 46 1012.0
20260905222706 108 113 0.0 3.0 0.00 0.00 0.00 47 1012.0
20260905222206 108 126 0.0 3.0 0.00 0.00 0.00 46 1012.0
20260905221706 107 145 2.0 6.0 0.00 0.00 0.00 47 1012.0
20260905221206 107 113 0.0 1.0 0.00 0.00 0.00 47 1012.0
20260905220706 106 141 0.0 2.0 0.00 0.00 0.00 47 1013.0
20260905220208 104 60 2.0 4.0 0.00 0.00 0.00 47 1013.0
20260905215707 103 26 3.0 7.0 0.00 0.00 0.00 50 1013.0
20260905215207 100 94 4.0 8.0 0.00 0.00 0.00 51 1013.0
20260905214706 103 323 2.0 6.0 0.00 0.00 0.00 49 1013.0
20260905214206 102 308 4.0 7.0 0.00 0.00 0.00 50 1013.0
20260905213706 103 349 4.0 6.0 0.00 0.00 0.00 51 1013.0
20260905213206 104 347 3.0 6.0 0.00 0.00 0.00 50 1013.0
20260905212706 106 315 3.0 7.0 0.00 0.00 0.00 48 1013.0
20260905212208 105 110 1.0 5.0 0.00 0.00 0.00 48 1013.0
20260905211708 107 239 1.0 6.0 0.00 0.00 0.00 46 1013.0
20260905211206 107 94 2.0 6.0 0.00 0.00 0.00 46 1013.0
20260905210707 107 34 3.0 6.0 0.00 0.00 0.00 48 1013.0
20260905210207 108 62 3.0 6.0 0.00 0.00 0.00 47 1013.0
20260905205706 108 125 3.0 6.0 0.00 0.00 0.00 49 1013.0
20260905205206 107 29 2.0 7.0 0.00 0.00 0.00 50 1013.0
20260905204706 108 295 2.0 4.0 0.00 0.00 0.00 47 1013.0
20260905204206 107 144 2.0 5.0 0.00 0.00 0.00 47 1013.0
20260905203706 106 30 6.0 9.0 0.00 0.00 0.00 48 1013.0
20260905203206 107 50 2.0 8.0 0.00 0.00 0.00 47 1013.0
20260905202706 105 57 4.0 7.0 0.00 0.00 0.00 50 1013.0
20260905202207 104 76 4.0 8.0 0.00 0.00 0.00 50 1013.0
20260905201707 105 329 5.0 10.0 0.00 0.00 0.00 49 1013.0
20260905201206 105 62 3.0 8.0 0.00 0.00 0.00 51 1013.0
20260905200707 106 52 3.0 7.0 0.00 0.00 0.00 50 1014.0
20260905200206 107 120 2.0 7.0 0.00 0.00 0.00 49 1014.0
20260905195707 106 77 2.0 5.0 0.00 0.00 0.00 50 1014.0
20260905195206 106 105 2.0 4.0 0.00 0.00 0.00 48 1014.0
20260905194707 106 97 2.0 5.0 0.00 0.00 0.00 50 1014.0
20260905194206 105 72 3.0 3.0 0.00 0.00 0.00 50 1014.0
20260905193706 105 72 4.0 6.0 0.00 0.00 0.00 50 1014.0
20260905193207 106 52 4.0 8.0 0.00 0.00 0.00 49 1014.0
20260905192708 106 115 2.0 5.0 0.00 0.00 0.00 51 1014.0
20260905192206 105 233 1.0 5.0 0.00 0.00 0.00 51 1014.0
20260905191707 105 103 1.0 5.0 0.00 0.00 0.00 51 1014.0
20260905191210 105 131 2.0 4.0 0.00 0.00 0.00 50 1014.0
20260905190706 105 100 3.0 8.0 0.00 0.00 0.00 50 1015.0
20260905190206 105 132 3.0 6.0 0.00 0.00 0.00 53 1015.0
20260905185706 105 84 1.0 5.0 0.00 0.00 0.00 53 1015.0
20260905185206 104 20 3.0 8.0 0.00 0.00 0.00 53 1015.0
20260905184706 102 123 3.0 10.0 0.00 0.00 0.00 56 1015.0
20260905184207 102 39 5.0 8.0 0.00 0.00 0.00 56 1015.0
20260905183706 101 16 4.0 8.0 0.00 0.00 0.00 56 1015.0
20260905183207 101 114 3.0 6.0 0.00 0.00 0.00 55 1015.0
20260905182706 100 234 4.0 8.0 0.00 0.00 0.00 57 1015.0
20260905182207 101 101 3.0 8.0 0.00 0.00 0.00 57 1015.0
20260905181707 100 30 4.0 11.0 0.00 0.00 0.00 58 1015.0
20260905181206 101 129 3.0 7.0 0.00 0.00 0.00 59 1015.0
20260905180706 100 73 3.0 4.0 0.00 0.00 0.00 58 1015.0
20260905180206 102 56 2.0 4.0 0.00 0.00 0.00 57 1015.0
20260905175706 102 119 2.0 6.0 0.00 0.00 0.00 58 1015.0
20260905175207 101 29 2.0 6.0 0.00 0.00 0.00 61 1015.0
20260905174706 99 325 6.0 9.0 0.00 0.00 0.00 61 1015.0
20260905174207 102 55 3.0 7.0 0.00 0.00 0.00 58 1015.0
20260905173707 102 137 2.0 6.0 0.00 0.00 0.00 60 1015.0
20260905173206 101 138 2.0 6.0 0.00 0.00 0.00 61 1015.0
20260905172706 100 104 3.0 7.0 0.00 0.00 0.00 61 1015.0
20260905172206 99 358 2.0 6.0 0.00 0.00 0.00 62 1016.0
20260905171707 99 98 3.0 7.0 0.00 0.00 0.00 62 1016.0
20260905171207 100 32 3.0 9.0 0.00 0.00 0.00 60 1016.0
20260905170706 100 75 2.0 4.0 0.00 0.00 0.00 62 1016.0
20260905170210 99 129 2.0 5.0 0.00 0.00 0.00 64 1016.0
20260905165706 98 81 3.0 6.0 0.00 0.00 0.00 63 1016.0
20260905165208 99 102 3.0 6.0 0.00 0.00 0.00 63 1016.0
20260905164706 99 40 2.0 6.0 0.00 0.00 0.00 62 1016.0
20260905164206 99 123 2.0 5.0 0.00 0.00 0.00 64 1016.0
20260905163706 98 154 2.0 6.0 0.00 0.00 0.00 65 1016.0
20260905163206 97 140 2.0 6.0 0.00 0.00 0.00 65 1016.0
20260905162707 98 153 2.0 4.0 0.00 0.00 0.00 62 1016.0
20260905162207 97 57 2.0 4.0 0.00 0.00 0.00 66 1016.0
20260905161706 96 48 2.0 5.0 0.00 0.00 0.00 68 1016.0
20260905161206 97 298 2.0 6.0 0.00 0.00 0.00 65 1016.0
20260905160706 97 41 3.0 6.0 0.00 0.00 0.00 67 1016.0
20260905160207 96 40 1.0 4.0 0.00 0.00 0.00 68 1016.0
20260905155708 96 98 2.0 5.0 0.00 0.00 0.00 69 1016.0
20260905155207 95 29 2.0 6.0 0.00 0.00 0.00 70 1016.0
20260905154707 94 41 2.0 4.0 0.00 0.00 0.00 73 1016.0
20260905154208 93 39 0.0 3.0 0.00 0.00 0.00 74 1016.0
20260905153707 94 117 1.0 3.0 0.00 0.00 0.00 72 1016.0
20260905153206 94 113 1.0 4.0 0.00 0.00 0.00 74 1016.0
20260905152711 93 97 1.0 3.0 0.00 0.00 0.00 74 1016.0
20260905152206 93 97 2.0 4.0 0.00 0.00 0.00 76 1016.0
20260905151707 92 135 1.0 3.0 0.00 0.00 0.00 76 1016.0
20260905151206 92 156 1.0 4.0 0.00 0.00 0.00 76 1016.0
20260905150706 92 311 2.0 4.0 0.00 0.00 0.00 78 1016.0
20260905150206 91 148 0.0 2.0 0.00 0.00 0.00 76 1016.0
20260905145707 91 148 1.0 3.0 0.00 0.00 0.00 76 1016.0
20260905145207 91 162 1.0 3.0 0.00 0.00 0.00 80 1016.0
20260905144706 90 139 1.0 4.0 0.00 0.00 0.00 82 1016.0
20260905144207 89 117 2.0 3.0 0.00 0.00 0.00 84 1016.0
20260905143706 88 148 2.0 4.0 0.00 0.00 0.00 87 1016.0
20260905143206 87 143 1.0 5.0 0.00 0.00 0.00 88 1016.0
20260905142707 85 74 0.0 3.0 0.00 0.00 0.00 91 1016.0
20260905142207 84 139 1.0 3.0 0.00 0.00 0.00 93 1016.0
20260905141706 83 46 1.0 3.0 0.00 0.00 0.00 94 1016.0
20260905141206 83 151 0.0 2.0 0.00 0.00 0.00 95 1016.0
20260905140706 82 60 0.0 3.0 0.00 0.00 0.00 96 1016.0
20260905140206 82 100 0.0 0.0 0.00 0.00 0.00 98 1016.0
20260905135706 82 127 0.0 0.0 0.00 0.00 0.00 98 1017.0
20260905135207 81 103 0.0 0.0 0.00 0.00 0.00 100 1017.0
20260905134706 81 139 0.0 0.0 0.00 0.00 0.00 100 1016.0
20260905134206 80 144 0.0 0.0 0.00 0.00 0.00 100 1016.0
20260905133706 79 73 0.0 0.0 0.00 0.00 0.00 100 1016.0
20260905133206 79 104 0.0 0.0 0.00 0.00 0.00 100 1016.0
20260905132707 78 134 0.0 0.0 0.00 0.00 0.00 100 1016.0
20260905132206 78 149 0.0 0.0 0.00 0.00 0.00 100 1016.0
20260905131706 77 82 0.0 0.0 0.00 0.00 0.00 100 1016.0
20260905131206 77 142 0.0 0.0 0.00 0.00 0.00 100 1016.0
20260905130706 76 123 0.0 0.0 0.00 0.00 0.00 100 1016.0
20260905130206 76 72 0.0 0.0 0.00 0.00 0.00 100 1016.0
20260905125708 75 62 0.0 0.0 0.00 0.00 0.00 100 1016.0
20260905125206 75 101 0.0 0.0 0.00 0.00 0.00 100 1016.0
20260905124707 75 138 0.0 0.0 0.00 0.00 0.00 100 1016.0
20260905124207 74 130 0.0 0.0 0.00 0.00 0.00 100 1016.0
20260905123706 74 117 0.0 0.0 0.00 0.00 0.00 100 1016.0
20260905123206 74 164 0.0 0.0 0.00 0.00 0.00 100 1016.0
20260905122706 74 164 0.0 0.0 0.00 0.00 0.00 100 1016.0
20260905122207 74 144 0.0 0.0 0.00 0.00 0.00 100 1016.0
20260905121706 73 148 0.0 0.0 0.00 0.00 0.00 100 1016.0
20260905121206 73 152 0.0 0.0 0.00 0.00 0.00 100 1016.0
20260905120706 73 133 0.0 0.0 0.00 0.00 0.00 100 1016.0
20260905120206 73 129 0.0 0.0 0.00 0.00 0.00 100 1016.0
20260905115706 73 137 0.0 0.0 0.00 0.00 0.00 100 1016.0
20260905115206 73 143 0.0 0.0 0.00 0.00 0.00 100 1016.0
20260905114706 73 132 0.0 0.0 0.00 0.00 0.00 100 1016.0
20260905114206 73 148 0.0 0.0 0.00 0.00 0.00 100 1016.0
20260905113706 73 142 0.0 0.0 0.00 0.00 0.00 100 1016.0
20260905113206 73 148 0.0 0.0 0.00 0.00 0.00 100 1016.0
20260905112706 73 143 0.0 0.0 0.00 0.00 0.00 100 1016.0
20260905112206 73 148 0.0 0.0 0.00 0.00 0.00 100 1015.0
20260905111706 73 149 0.0 0.0 0.00 0.00 0.00 100 1015.0
20260905111207 73 157 0.0 0.0 0.00 0.00 0.00 100 1015.0
20260905110707 73 38 0.0 0.0 0.00 0.00 0.00 100 1015.0
20260905110206 73 153 0.0 0.0 0.00 0.00 0.00 100 1015.0
20260905105706 73 143 0.0 0.0 0.00 0.00 0.00 100 1015.0
20260905105206 73 142 0.0 0.0 0.00 0.00 0.00 100 1015.0
20260905104706 73 141 0.0 0.0 0.00 0.00 0.00 100 1015.0
20260905104206 73 141 0.0 0.0 0.00 0.00 0.00 100 1015.0
20260905103706 73 137 0.0 0.0 0.00 0.00 0.00 100 1015.0
20260905103206 73 139 0.0 0.0 0.00 0.00 0.00 100 1015.0
20260905102707 73 141 0.0 0.0 0.00 0.00 0.00 100 1015.0
20260905102207 73 140 0.0 0.0 0.00 0.00 0.00 100 1015.0
20260905101706 73 149 0.0 0.0 0.00 0.00 0.00 100 1015.0
20260905101206 74 170 0.0 0.0 0.00 0.00 0.00 100 1015.0
20260905100706 73 170 0.0 0.0 0.00 0.00 0.00 100 1015.0
20260905100206 73 191 0.0 0.0 0.00 0.00 0.00 100 1015.0
20260905095706 73 150 0.0 0.0 0.00 0.00 0.00 100 1015.0
20260905095206 73 163 0.0 0.0 0.00 0.00 0.00 100 1015.0
20260905094706 73 157 0.0 0.0 0.00 0.00 0.00 100 1015.0
20260905094206 73 164 0.0 0.0 0.00 0.00 0.00 100 1015.0
20260905093706 73 141 0.0 0.0 0.00 0.00 0.00 100 1015.0
20260905093206 73 137 0.0 0.0 0.00 0.00 0.00 100 1015.0
20260905092707 73 150 0.0 0.0 0.00 0.00 0.00 100 1015.0
20260905092206 73 128 0.0 0.0 0.00 0.00 0.00 100 1015.0
20260905091707 73 122 0.0 0.0 0.00 0.00 0.00 100 1015.0
20260905091206 73 150 0.0 0.0 0.00 0.00 0.00 100 1015.0
20260905090707 73 143 0.0 0.0 0.00 0.00 0.00 100 1015.0
20260905090206 73 165 0.0 0.0 0.00 0.00 0.00 100 1015.0
20260905085706 73 144 0.0 0.0 0.00 0.00 0.00 100 1015.0
20260905085207 74 124 0.0 0.0 0.00 0.00 0.00 100 1015.0
20260905084706 74 143 0.0 0.0 0.00 0.00 0.00 100 1015.0
20260905084206 74 151 0.0 0.0 0.00 0.00 0.00 100 1015.0
20260905083706 74 139 0.0 0.0 0.00 0.00 0.00 100 1015.0
20260905083206 74 149 0.0 0.0 0.00 0.00 0.00 100 1015.0
20260905082706 74 143 0.0 0.0 0.00 0.00 0.00 100 1015.0
20260905082206 74 143 0.0 0.0 0.00 0.00 0.00 100 1015.0
20260905081706 74 102 0.0 0.0 0.00 0.00 0.00 100 1015.0
20260905081206 74 142 0.0 0.0 0.00 0.00 0.00 100 1015.0
20260905080706 74 136 0.0 0.0 0.00 0.00 0.00 100 1015.0
20260905080205 74 164 0.0 0.0 0.00 0.00 0.00 100 1015.0
20260905075707 74 355 0.0 0.0 0.00 0.00 0.00 100 1015.0
20260905075206 74 114 0.0 0.0 0.00 0.00 0.00 100 1015.0
20260905074707 74 140 0.0 0.0 0.00 0.00 0.00 100 1015.0
20260905074206 74 166 0.0 0.0 0.00 0.00 0.00 100 1015.0
20260905073706 74 177 0.0 0.0 0.00 0.00 0.00 100 1015.0
20260905073206 74 177 0.0 0.0 0.00 0.00 0.00 100 1015.0
20260905072707 74 137 0.0 0.0 0.00 0.00 0.00 100 1015.0
20260905072206 74 144 0.0 0.0 0.00 0.00 0.00 100 1015.0
20260905071706 74 144 0.0 0.0 0.00 0.00 0.00 100 1015.0
20260905071206 74 155 0.0 0.0 0.00 0.00 0.00 100 1015.0
20260905070706 74 143 0.0 0.0 0.00 0.00 0.00 100 1015.0
20260905070206 75 139 0.0 0.0 0.00 0.00 0.00 100 1015.0
20260905065706 75 118 0.0 0.0 0.00 0.00 0.00 100 1015.0
20260905065206 75 143 0.0 0.0 0.00 0.00 0.00 100 1015.0
20260905064707 75 143 0.0 0.0 0.00 0.00 0.00 100 1015.0
20260905064206 75 161 0.0 0.0 0.00 0.00 0.00 100 1015.0
20260905063707 75 158 0.0 0.0 0.00 0.00 0.00 100 1015.0
20260905063206 75 157 0.0 0.0 0.00 0.00 0.00 100 1015.0
20260905062706 75 143 0.0 0.0 0.00 0.00 0.00 100 1015.0
20260905062206 75 161 0.0 0.0 0.00 0.00 0.00 100 1015.0
20260905061706 75 122 0.0 0.0 0.00 0.00 0.00 100 1015.0
20260905061206 75 147 0.0 0.0 0.00 0.00 0.00 100 1015.0
20260905060706 75 169 0.0 0.0 0.00 0.00 0.00 100 1015.0
20260905060206 75 145 0.0 0.0 0.00 0.00 0.00 100 1015.0
20260905055706 75 148 0.0 0.0 0.00 0.00 0.00 100 1015.0
20260905055206 75 146 0.0 0.0 0.00 0.00 0.00 100 1015.0
20260905054706 76 146 0.0 0.0 0.00 0.00 0.00 100 1015.0
20260905054207 76 159 0.0 0.0 0.00 0.00 0.00 100 1015.0
20260905053706 76 147 0.0 0.0 0.00 0.00 0.00 100 1016.0
20260905053208 76 137 0.0 0.0 0.00 0.00 0.00 100 1015.0
20260905052706 76 52 0.0 0.0 0.00 0.00 0.00 100 1016.0
20260905052206 76 143 0.0 0.0 0.00 0.00 0.00 100 1016.0
20260905051706 76 166 0.0 0.0 0.00 0.00 0.00 100 1016.0
20260905051207 76 143 0.0 0.0 0.00 0.00 0.00 100 1015.0
20260905050710 76 143 0.0 0.0 0.00 0.00 0.00 100 1016.0
20260905050207 76 124 0.0 0.0 0.00 0.00 0.00 100 1015.0
20260905045706 76 130 0.0 0.0 0.00 0.00 0.00 100 1015.0
20260905045206 76 133 0.0 0.0 0.00 0.00 0.00 100 1015.0
20260905044706 76 141 0.0 0.0 0.00 0.00 0.00 100 1015.0
20260905044207 76 143 0.0 0.0 0.00 0.00 0.00 100 1015.0
20260905043706 76 120 0.0 0.0 0.00 0.00 0.00 100 1016.0
20260905043207 77 136 0.0 0.0 0.00 0.00 0.00 100 1015.0
20260905042706 77 146 0.0 0.0 0.00 0.00 0.00 100 1015.0
20260905042206 77 165 0.0 0.0 0.00 0.00 0.00 100 1015.0
20260905041706 77 165 0.0 0.0 0.00 0.00 0.00 100 1015.0
20260905041206 77 169 0.0 0.0 0.00 0.00 0.00 100 1015.0
20260905040706 77 127 0.0 0.0 0.00 0.00 0.00 100 1015.0
20260905040206 77 139 0.0 0.0 0.00 0.00 0.00 100 1016.0